Time,TemperatureF,DewpointF,PressureIn,WindDirection,WindDirectionDegrees,WindSpeedMPH,WindSpeedGustMPH,Humidity,HourlyPrecipIn,Conditions,Clouds,dailyrainin,SolarRadiationWatts/m^2,SoftwareType,DateUTC
2013-05-12 00:21:00,43.0,24.0,-100.00,WSW,258,5.0,7.0,47,0.00,,,0.00,0.000000,,2013-05-12 06:21:00,
2013-05-12 00:32:00,43.0,24.0,-100.00,WSW,258,5.0,7.0,47,0.00,,,0.00,0.000000,,2013-05-12 06:32:00,
2013-05-12 00:42:00,43.0,24.0,-100.00,WSW,258,5.0,7.0,47,0.00,,,0.00,0.000000,,2013-05-12 06:42:00,
2013-05-12 00:51:00,43.0,24.0,-100.00,WSW,258,5.0,7.0,47,0.00,,,0.00,0.000000,,2013-05-12 06:51:00,
2013-05-12 01:21:00,45.0,23.0,-100.00,WNW,283,7.0,15.0,42,0.00,,,0.00,0.000000,,2013-05-12 07:21:00,
2013-05-12 01:32:00,45.0,23.0,-100.00,WNW,283,7.0,15.0,42,0.00,,,0.00,0.000000,,2013-05-12 07:32:00,
2013-05-12 01:42:00,45.0,23.0,-100.00,WNW,283,7.0,15.0,42,0.00,,,0.00,0.000000,,2013-05-12 07:42:00,
2013-05-12 01:52:00,45.0,23.0,-100.00,WNW,283,7.0,15.0,42,0.00,,,0.00,0.000000,,2013-05-12 07:52:00,
2013-05-12 02:21:00,44.0,24.0,-100.00,NW,307,7.0,13.0,45,0.00,,,0.00,0.000000,,2013-05-12 08:21:00,
2013-05-12 02:32:00,44.0,24.0,-100.00,NW,307,7.0,13.0,45,0.00,,,0.00,0.000000,,2013-05-12 08:32:00,
2013-05-12 02:41:00,44.0,24.0,-100.00,NW,307,7.0,13.0,45,0.00,,,0.00,0.000000,,2013-05-12 08:41:00,
2013-05-12 02:52:00,44.0,24.0,-100.00,NW,307,7.0,13.0,45,0.00,,,0.00,0.000000,,2013-05-12 08:52:00,
2013-05-12 03:21:00,44.0,24.0,-100.00,NW,313,6.0,16.0,45,0.00,,,0.00,1.000000,,2013-05-12 09:21:00,
2013-05-12 03:33:00,44.0,24.0,-100.00,NW,313,6.0,16.0,45,0.00,,,0.00,1.000000,,2013-05-12 09:33:00,
2013-05-12 03:42:00,44.0,24.0,-100.00,NW,313,6.0,16.0,45,0.00,,,0.00,1.000000,,2013-05-12 09:42:00,
2013-05-12 03:52:00,44.0,24.0,-100.00,NW,313,6.0,16.0,45,0.00,,,0.00,1.000000,,2013-05-12 09:52:00,
2013-05-12 04:22:00,43.0,24.0,-100.00,NW,314,4.0,9.0,46,0.00,,,-99.99,1.000000,,2013-05-12 10:22:00,
2013-05-12 04:33:00,43.0,24.0,-100.00,NW,314,4.0,9.0,46,0.00,,,-99.99,1.000000,,2013-05-12 10:33:00,
2013-05-12 04:42:00,43.0,24.0,-100.00,NW,314,4.0,9.0,46,0.00,,,-99.99,1.000000,,2013-05-12 10:42:00,
2013-05-12 04:52:00,43.0,24.0,-100.00,NW,314,4.0,9.0,46,0.00,,,-99.99,1.000000,,2013-05-12 10:52:00,
2013-05-12 05:21:00,40.0,25.0,-100.00,NNW,331,2.0,6.0,54,0.00,,,0.00,0.000000,,2013-05-12 11:21:00,
2013-05-12 05:32:00,40.0,25.0,-100.00,NNW,331,2.0,6.0,54,0.00,,,0.00,0.000000,,2013-05-12 11:32:00,
2013-05-12 05:42:00,40.0,25.0,-100.00,NNW,331,2.0,6.0,54,0.00,,,0.00,0.000000,,2013-05-12 11:42:00,
2013-05-12 05:51:00,40.0,25.0,-100.00,NNW,331,2.0,6.0,54,0.00,,,0.00,0.000000,,2013-05-12 11:51:00,
2013-05-12 06:21:00,42.0,26.0,-100.00,NNE,18,3.0,7.0,52,0.00,,,0.00,1.000000,,2013-05-12 12:21:00,
2013-05-12 06:32:00,42.0,26.0,-100.00,NNE,18,3.0,7.0,52,0.00,,,0.00,1.000000,,2013-05-12 12:32:00,
2013-05-12 06:41:00,42.0,26.0,-100.00,NNE,18,3.0,7.0,52,0.00,,,0.00,1.000000,,2013-05-12 12:41:00,
2013-05-12 06:51:00,42.0,26.0,-100.00,NNE,18,3.0,7.0,52,0.00,,,0.00,1.000000,,2013-05-12 12:51:00,
2013-05-12 07:21:00,44.0,27.0,-100.00,NNE,30,2.0,8.0,51,0.00,,,0.00,44.000000,,2013-05-12 13:21:00,
2013-05-12 07:31:00,44.0,27.0,-100.00,NNE,30,2.0,8.0,51,0.00,,,0.00,44.000000,,2013-05-12 13:31:00,
2013-05-12 07:41:00,44.0,27.0,-100.00,NNE,30,2.0,8.0,51,0.00,,,0.00,44.000000,,2013-05-12 13:41:00,
2013-05-12 07:52:00,44.0,27.0,-100.00,NNE,30,2.0,8.0,51,0.00,,,0.00,44.000000,,2013-05-12 13:52:00,
2013-05-12 08:21:00,49.0,26.0,-100.00,WNW,293,3.0,5.0,41,0.00,,,0.00,243.000000,,2013-05-12 14:21:00,
2013-05-12 08:31:00,49.0,26.0,-100.00,WNW,293,3.0,5.0,41,0.00,,,0.00,243.000000,,2013-05-12 14:31:00,
2013-05-12 08:42:00,49.0,26.0,-100.00,WNW,293,3.0,5.0,41,0.00,,,0.00,243.000000,,2013-05-12 14:42:00,
2013-05-12 08:51:00,49.0,26.0,-100.00,WNW,293,3.0,5.0,41,0.00,,,0.00,243.000000,,2013-05-12 14:51:00,
2013-05-12 09:21:00,51.0,27.0,-100.00,WNW,303,5.0,9.0,39,0.00,,,0.00,451.000000,,2013-05-12 15:21:00,
2013-05-12 09:33:00,51.0,27.0,-100.00,WNW,303,5.0,9.0,39,0.00,,,0.00,451.000000,,2013-05-12 15:33:00,
2013-05-12 09:42:00,51.0,27.0,-100.00,WNW,303,5.0,9.0,39,0.00,,,0.00,451.000000,,2013-05-12 15:42:00,
2013-05-12 09:52:00,51.0,27.0,-100.00,WNW,303,5.0,9.0,39,0.00,,,0.00,451.000000,,2013-05-12 15:52:00,
2013-05-12 10:23:00,52.0,27.0,-100.00,NNW,339,7.0,13.0,38,0.00,,,0.00,662.000000,,2013-05-12 16:23:00,
2013-05-12 10:32:00,52.0,27.0,-100.00,NNW,339,7.0,13.0,38,0.00,,,0.00,662.000000,,2013-05-12 16:32:00,
2013-05-12 10:42:00,52.0,27.0,-100.00,NNW,339,7.0,13.0,38,0.00,,,0.00,662.000000,,2013-05-12 16:42:00,
2013-05-12 10:52:00,52.0,27.0,-100.00,NNW,339,7.0,13.0,38,0.00,,,0.00,662.000000,,2013-05-12 16:52:00,
2013-05-12 11:22:00,54.0,26.0,-100.00,NW,324,7.0,13.0,34,0.00,,,0.00,808.000000,,2013-05-12 17:22:00,
2013-05-12 11:32:00,54.0,26.0,-100.00,NW,324,7.0,13.0,34,0.00,,,0.00,808.000000,,2013-05-12 17:32:00,
2013-05-12 11:42:00,54.0,26.0,-100.00,NW,324,7.0,13.0,34,0.00,,,0.00,808.000000,,2013-05-12 17:42:00,
2013-05-12 11:52:00,54.0,26.0,-100.00,NW,324,7.0,13.0,34,0.00,,,0.00,808.000000,,2013-05-12 17:52:00,
2013-05-12 12:22:00,56.0,26.0,-100.00,WNW,301,7.0,18.0,31,0.00,,,0.00,913.000000,,2013-05-12 18:22:00,
2013-05-12 12:31:00,56.0,26.0,-100.00,WNW,301,7.0,18.0,31,0.00,,,0.00,913.000000,,2013-05-12 18:31:00,
2013-05-12 12:41:00,56.0,26.0,-100.00,WNW,301,7.0,18.0,31,0.00,,,0.00,913.000000,,2013-05-12 18:41:00,
2013-05-12 12:51:00,56.0,26.0,-100.00,WNW,301,7.0,18.0,31,0.00,,,0.00,913.000000,,2013-05-12 18:51:00,
2013-05-12 13:21:00,56.0,24.0,-100.00,NW,313,9.0,20.0,29,0.00,,,0.00,965.000000,,2013-05-12 19:21:00,
2013-05-12 13:32:00,56.0,24.0,-100.00,NW,313,9.0,20.0,29,0.00,,,0.00,965.000000,,2013-05-12 19:32:00,
2013-05-12 13:42:00,56.0,24.0,-100.00,NW,313,9.0,20.0,29,0.00,,,0.00,965.000000,,2013-05-12 19:42:00,
2013-05-12 13:52:00,56.0,24.0,-100.00,NW,313,9.0,20.0,29,0.00,,,0.00,965.000000,,2013-05-12 19:52:00,
2013-05-12 14:21:00,56.0,26.0,-100.00,NW,306,7.0,18.0,31,0.00,,,0.00,822.000000,,2013-05-12 20:21:00,
2013-05-12 14:32:00,56.0,26.0,-100.00,NW,306,7.0,18.0,31,0.00,,,0.00,822.000000,,2013-05-12 20:32:00,
2013-05-12 14:42:00,56.0,26.0,-100.00,NW,306,7.0,18.0,31,0.00,,,0.00,822.000000,,2013-05-12 20:42:00,
2013-05-12 14:51:00,56.0,26.0,-100.00,NW,306,7.0,18.0,31,0.00,,,0.00,822.000000,,2013-05-12 20:51:00,
2013-05-12 15:21:00,57.0,26.0,-100.00,NW,305,9.0,15.0,30,0.00,,,0.00,701.000000,,2013-05-12 21:21:00,
2013-05-12 15:33:00,57.0,26.0,-100.00,NW,305,9.0,15.0,30,0.00,,,0.00,701.000000,,2013-05-12 21:33:00,
2013-05-12 15:42:00,57.0,26.0,-100.00,NW,305,9.0,15.0,30,0.00,,,0.00,701.000000,,2013-05-12 21:42:00,
2013-05-12 15:52:00,57.0,26.0,-100.00,NW,305,9.0,15.0,30,0.00,,,0.00,701.000000,,2013-05-12 21:52:00,
2013-05-12 16:23:00,56.0,24.0,-100.00,North,357,8.0,15.0,29,0.00,,,0.00,609.000000,,2013-05-12 22:23:00,
2013-05-12 16:32:00,56.0,24.0,-100.00,North,357,8.0,15.0,29,0.00,,,0.00,609.000000,,2013-05-12 22:32:00,
2013-05-12 16:42:00,56.0,24.0,-100.00,North,357,8.0,15.0,29,0.00,,,0.00,609.000000,,2013-05-12 22:42:00,
2013-05-12 16:52:00,56.0,24.0,-100.00,North,357,8.0,15.0,29,0.00,,,0.00,609.000000,,2013-05-12 22:52:00,
2013-05-12 17:22:00,57.0,25.0,-100.00,NNW,340,6.0,13.0,29,0.00,,,-99.99,456.000000,,2013-05-12 23:22:00,
2013-05-12 17:32:00,57.0,25.0,-100.00,NNW,340,6.0,13.0,29,0.00,,,-99.99,456.000000,,2013-05-12 23:32:00,
2013-05-12 17:42:00,57.0,25.0,-100.00,NNW,340,6.0,13.0,29,0.00,,,-99.99,456.000000,,2013-05-12 23:42:00,
2013-05-12 17:51:00,57.0,25.0,-100.00,NNW,340,6.0,13.0,29,0.00,,,-99.99,456.000000,,2013-05-12 23:51:00,
2013-05-12 18:21:00,59.0,24.0,-100.00,North,355,5.0,13.0,26,0.00,,,0.00,459.000000,,2013-05-13 00:21:00,
2013-05-12 18:32:00,59.0,24.0,-100.00,North,355,5.0,13.0,26,0.00,,,0.00,459.000000,,2013-05-13 00:32:00,
2013-05-12 18:41:00,59.0,24.0,-100.00,North,355,5.0,13.0,26,0.00,,,0.00,459.000000,,2013-05-13 00:41:00,
2013-05-12 18:51:00,59.0,24.0,-100.00,North,355,5.0,13.0,26,0.00,,,0.00,459.000000,,2013-05-13 00:51:00,
2013-05-12 19:22:00,57.0,25.0,-100.00,WNW,297,7.0,13.0,29,0.00,,,0.00,329.000000,,2013-05-13 01:22:00,
2013-05-12 19:31:00,57.0,25.0,-100.00,WNW,297,7.0,13.0,29,0.00,,,0.00,329.000000,,2013-05-13 01:31:00,
2013-05-12 19:41:00,57.0,25.0,-100.00,WNW,297,7.0,13.0,29,0.00,,,0.00,329.000000,,2013-05-13 01:41:00,
2013-05-12 19:52:00,57.0,25.0,-100.00,WNW,297,7.0,13.0,29,0.00,,,0.00,329.000000,,2013-05-13 01:52:00,
2013-05-12 20:21:00,52.0,27.0,-100.00,North,1,2.0,9.0,37,0.00,,,0.00,80.000000,,2013-05-13 02:21:00,
2013-05-12 20:31:00,52.0,27.0,-100.00,North,1,2.0,9.0,37,0.00,,,0.00,80.000000,,2013-05-13 02:31:00,
2013-05-12 20:41:00,52.0,27.0,-100.00,North,1,2.0,9.0,37,0.00,,,0.00,80.000000,,2013-05-13 02:41:00,
2013-05-12 20:51:00,52.0,27.0,-100.00,North,1,2.0,9.0,37,0.00,,,0.00,80.000000,,2013-05-13 02:51:00,
2013-05-12 21:21:00,49.0,26.0,-100.00,North,358,0.0,3.0,41,0.00,,,0.00,6.000000,,2013-05-13 03:21:00,
2013-05-12 21:32:00,49.0,26.0,-100.00,North,358,0.0,3.0,41,0.00,,,0.00,6.000000,,2013-05-13 03:32:00,
2013-05-12 21:42:00,49.0,26.0,-100.00,North,358,0.0,3.0,41,0.00,,,0.00,6.000000,,2013-05-13 03:42:00,
2013-05-12 21:52:00,49.0,26.0,-100.00,North,358,0.0,3.0,41,0.00,,,0.00,6.000000,,2013-05-13 03:52:00,
2013-05-12 22:23:00,49.0,27.0,-100.00,SW,219,3.0,4.0,42,0.00,,,0.00,1.000000,,2013-05-13 04:23:00,
2013-05-12 22:32:00,49.0,27.0,-100.00,SW,219,3.0,4.0,42,0.00,,,0.00,1.000000,,2013-05-13 04:32:00,
2013-05-12 22:41:00,49.0,27.0,-100.00,SW,219,3.0,4.0,42,0.00,,,0.00,1.000000,,2013-05-13 04:41:00,
2013-05-12 22:52:00,49.0,27.0,-100.00,SW,219,3.0,4.0,42,0.00,,,0.00,1.000000,,2013-05-13 04:52:00,
2013-05-12 23:21:00,48.0,26.0,-100.00,East,99,0.0,3.0,42,0.00,,,0.00,0.000000,,2013-05-13 05:21:00,
2013-05-12 23:32:00,48.0,26.0,-100.00,East,99,0.0,3.0,42,0.00,,,0.00,0.000000,,2013-05-13 05:32:00,
2013-05-12 23:42:00,48.0,26.0,-100.00,East,99,0.0,3.0,42,0.00,,,0.00,0.000000,,2013-05-13 05:42:00,
2013-05-12 23:51:00,48.0,26.0,-100.00,East,99,0.0,3.0,42,0.00,,,0.00,0.000000,,2013-05-13 05:51:00,